�������l�o���
Date,Time,MP-1(��Sv/h),MP-2(��Sv/h),MP-3(��Sv/h),MP-4(��Sv/h),MP-5(��Sv/h),MP-6(��Sv/h),MP-7(��Sv/h),����,����(m/s),���J
2013/09/03,00:00,0.9,0.6,0.9,0.8,0.8,0.4,0.3,�k�k��,3.8,��
2013/09/03,00:10,0.9,0.6,0.9,0.8,0.8,0.4,0.3,�k�k��,4.7,��
2013/09/03,00:20,0.9,0.6,0.9,0.8,0.8,0.4,0.3,�k�k��,5.0,��
2013/09/03,00:30,0.9,0.6,0.9,0.8,0.8,0.4,0.3,�k�k��,4.7,��
2013/09/03,00:40,0.9,0.6,0.9,0.8,0.8,0.4,0.3,�k�k��,5.2,��
2013/09/03,00:50,0.9,0.6,0.9,0.8,0.8,0.4,0.3,�k�k��,4.9,��
2013/09/03,01:00,0.9,0.6,0.9,0.8,0.8,0.4,0.3,�k�k��,5.3,�L
2013/09/03,01:10,0.9,0.6,0.9,0.8,0.8,0.4,0.3,�k�k��,4.9,�L
2013/09/03,01:20,0.9,0.6,0.9,0.8,0.8,0.4,0.3,�k�k��,4.8,�L
2013/09/03,01:30,0.9,0.6,0.9,0.8,0.8,0.4,0.3,�k�k��,5.6,�L
2013/09/03,01:40,0.9,0.6,0.9,0.8,0.8,0.4,0.3,�k�k��,5.1,�L
2013/09/03,01:50,0.9,0.6,0.9,0.8,0.8,0.4,0.3,�k�k��,5.7,�L
2013/09/03,02:00,0.9,0.6,0.9,0.8,0.8,0.4,0.3,�k�k��,5.7,��
2013/09/03,02:10,0.9,0.6,0.9,0.8,0.8,0.4,0.3,�k�k��,5.6,��
2013/09/03,02:20,0.9,0.6,0.9,0.8,0.8,0.4,0.3,�k�k��,6.3,��
2013/09/03,02:30,0.9,0.6,0.9,0.8,0.8,0.4,0.3,�k�k��,5.8,��
2013/09/03,02:40,0.9,0.6,0.9,0.8,0.8,0.4,0.3,�k�k��,6.3,��
2013/09/03,02:50,0.9,0.6,0.9,0.8,0.8,0.4,0.3,�k�k��,5.5,��
2013/09/03,03:00,0.9,0.6,0.9,0.8,0.8,0.4,0.3,�k,6.0,��
2013/09/03,03:10,0.9,0.6,0.9,0.8,0.8,0.4,0.3,�k�k��,4.7,��
2013/09/03,03:20,0.9,0.6,0.9,0.8,0.8,0.4,0.3,�k�k��,4.2,��
2013/09/03,03:30,0.9,0.6,0.9,0.8,0.8,0.4,0.3,�k�k��,4.4,��
2013/09/03,03:40,0.9,0.6,0.9,0.8,0.8,0.4,0.3,�k�k��,4.2,�L
2013/09/03,03:50,0.9,0.6,0.9,0.8,0.8,0.4,0.3,�k�k��,4.3,�L
2013/09/03,04:00,0.9,0.6,0.9,0.8,0.8,0.4,0.3,�k�k��,4.7,��
2013/09/03,04:10,0.9,0.6,0.9,0.8,0.8,0.4,0.3,�k�k��,4.0,��
2013/09/03,04:20,0.9,0.6,0.9,0.8,0.8,0.4,0.3,�k�k��,3.6,��
2013/09/03,04:30,0.9,0.6,0.9,0.8,0.8,0.4,0.3,�k�k��,3.3,��
2013/09/03,04:40,0.9,0.6,0.9,0.8,0.8,0.4,0.3,�k�k��,2.2,��
2013/09/03,04:50,0.9,0.6,0.9,0.8,0.8,0.4,0.3,�k,2.3,��
2013/09/03,05:00,0.9,0.6,0.9,0.8,0.8,0.4,0.3,�k,2.0,��
2013/09/03,05:10,0.9,0.6,0.9,0.8,0.8,0.4,0.3,�k,1.6,��
2013/09/03,05:20,0.9,0.6,0.9,0.8,0.8,0.4,0.3,�k�k��,1.9,��
2013/09/03,05:30,0.9,0.6,0.9,0.8,0.8,0.4,0.3,�k,1.8,��
2013/09/03,05:40,0.9,0.6,0.9,0.8,0.8,0.4,0.3,�k,1.5,��
2013/09/03,05:50,0.9,0.6,0.9,0.8,0.8,0.4,0.3,�k�k��,1.4,��
2013/09/03,06:00,0.9,0.6,0.9,0.8,0.8,0.4,0.3,�k,1.0,��
2013/09/03,06:10,0.9,0.6,0.9,0.8,0.8,0.4,0.3,�k�k��,1.6,��
2013/09/03,06:20,0.9,0.6,0.9,0.8,0.8,0.4,0.3,�k,0.9,��
2013/09/03,06:30,0.9,0.6,0.9,0.8,0.8,0.4,0.3,�k,1.3,��
2013/09/03,06:40,0.9,0.6,0.9,0.8,0.8,0.4,0.3,�k�k��,0.8,��
2013/09/03,06:50,0.9,0.6,0.9,0.8,0.8,0.4,0.3,�k��,1.0,��
2013/09/03,07:00,0.9,0.6,0.9,0.8,0.8,0.4,0.3,�k,1.2,��
2013/09/03,07:10,0.9,0.6,0.9,0.8,0.8,0.4,0.3,�k�k��,0.8,��
2013/09/03,07:20,0.9,0.6,0.9,0.8,0.8,0.4,0.3,�k,0.9,��
2013/09/03,07:30,0.9,0.6,0.9,0.8,0.8,0.4,0.3,�k�k��,0.7,��
2013/09/03,07:40,0.9,0.6,0.9,0.8,0.8,0.4,0.3,�k��,1.1,��
2013/09/03,07:50,0.9,0.6,0.9,0.8,0.8,0.4,0.3,�k��,0.5,��
2013/09/03,08:00,0.9,0.6,0.9,0.8,0.8,0.4,0.3,-,CALM,��
2013/09/03,08:10,0.9,0.6,0.9,0.9,0.8,0.4,0.3,��,0.6,��
2013/09/03,08:20,0.9,0.6,0.9,0.8,0.8,0.4,0.3,���k��,0.7,��
2013/09/03,08:30,0.9,0.6,0.9,0.8,0.8,0.4,0.3,���쓌,1.3,��
2013/09/03,08:40,0.9,0.6,0.9,0.8,0.8,0.4,0.3,���쓌,1.2,��
2013/09/03,08:50,0.9,0.6,0.9,0.9,0.8,0.4,0.3,�쓌,1.2,��
2013/09/03,09:00,0.9,0.6,0.9,0.9,0.8,0.4,0.3,���쓌,1.2,��
2013/09/03,09:10,0.9,0.6,0.9,0.9,0.8,0.4,0.3,���쓌,1.9,��
2013/09/03,09:20,0.9,0.6,0.9,0.9,0.8,0.4,0.3,�쓌,1.5,��
2013/09/03,09:30,0.9,0.6,0.9,0.9,0.8,0.4,0.3,�쓌,2.4,��
2013/09/03,09:40,0.9,0.6,0.9,0.9,0.8,0.4,0.3,�쓌,2.5,��
2013/09/03,09:50,0.9,0.6,0.9,0.9,0.8,0.4,0.3,�쓌,3.1,��
2013/09/03,10:00,0.9,0.6,0.9,0.9,0.8,0.4,0.3,-,-,��
2013/09/03,10:10,0.9,0.6,0.9,0.9,0.8,0.4,0.3,-,-,��
2013/09/03,10:20,0.9,0.6,0.9,0.9,0.8,0.4,0.3,-,-,��
2013/09/03,10:30,0.9,0.6,0.9,0.9,0.8,0.4,0.3,-,-,��
2013/09/03,10:40,0.9,0.6,0.9,0.9,0.8,0.4,0.3,-,-,��
2013/09/03,10:50,0.9,0.6,0.9,0.9,0.8,0.4,0.3,-,-,��
2013/09/03,11:00,0.9,0.6,0.9,0.9,0.8,0.4,0.3,-,-,��
2013/09/03,11:10,0.9,0.6,0.9,0.9,0.8,0.4,0.3,-,-,��
2013/09/03,11:20,0.9,0.6,0.9,0.9,0.8,0.4,0.3,-,-,��
2013/09/03,11:30,0.9,0.6,0.9,0.9,0.8,0.4,0.3,-,-,��
2013/09/03,11:40,0.9,0.6,0.9,0.9,0.8,0.4,0.3,-,-,��
2013/09/03,11:50,0.9,0.6,0.9,0.9,0.8,0.4,0.3,-,-,��
2013/09/03,12:00,0.9,0.6,0.9,0.9,0.8,0.4,0.3,-,-,��
2013/09/03,12:10,0.9,0.6,0.9,0.9,0.8,0.4,0.3,-,-,��
2013/09/03,12:20,0.9,0.6,0.9,0.9,0.8,0.4,0.3,-,-,��
2013/09/03,12:30,0.9,0.6,0.9,0.9,0.8,0.4,0.3,-,-,��
2013/09/03,12:40,0.9,0.6,0.9,0.9,0.8,0.4,0.3,-,-,��
2013/09/03,12:50,0.9,0.6,0.9,0.9,0.8,0.4,0.3,-,-,��
2013/09/03,13:00,0.9,0.6,0.9,0.9,0.8,0.4,0.3,-,-,��
2013/09/03,13:10,0.9,0.6,0.9,0.9,0.8,0.4,0.3,-,-,��
2013/09/03,13:20,0.9,0.6,0.9,0.9,0.8,0.4,0.3,-,-,��
2013/09/03,13:30,0.9,0.6,0.9,0.9,0.8,0.4,0.3,-,-,��
2013/09/03,13:40,0.9,0.6,0.9,0.9,0.8,0.4,0.3,-,-,��
2013/09/03,13:50,0.9,0.6,0.9,0.9,0.8,0.4,0.3,-,-,��
2013/09/03,14:00,0.9,0.6,0.9,0.9,0.8,0.4,0.3,-,-,��
2013/09/03,14:10,0.9,0.6,0.9,0.9,0.8,0.4,0.3,-,-,��
2013/09/03,14:20,0.9,0.6,0.9,0.9,0.8,0.4,0.3,-,-,��
2013/09/03,14:30,0.9,0.6,0.9,0.9,0.8,0.4,0.3,-,-,��
2013/09/03,14:40,0.9,0.6,0.9,0.9,0.8,0.4,0.3,-,-,��
2013/09/03,14:50,0.9,0.6,0.9,0.9,0.8,0.4,0.3,-,-,��
2013/09/03,15:00,0.9,0.6,0.9,0.9,0.8,0.4,0.3,-,-,��
2013/09/03,15:10,0.9,0.6,0.9,0.9,0.8,0.4,0.3,-,-,��
2013/09/03,15:20,0.9,0.6,0.9,0.9,0.8,0.4,0.3,-,-,��
2013/09/03,15:30,0.9,0.6,0.9,0.9,0.8,0.4,0.3,-,-,��
2013/09/03,15:40,0.9,0.6,0.9,0.9,0.8,0.4,0.3,-,-,��
2013/09/03,15:50,0.9,0.6,0.9,0.9,0.8,0.4,0.3,-,-,��
2013/09/03,16:00,0.9,0.6,0.9,0.9,0.8,0.4,0.3,-,-,��
2013/09/03,16:10,0.9,0.6,0.9,0.9,0.8,0.4,0.3,-,-,��
2013/09/03,16:20,0.9,0.6,0.9,0.9,0.8,0.4,0.3,-,-,��
2013/09/03,16:30,0.9,0.6,0.9,0.9,0.8,0.4,0.3,-,-,��
2013/09/03,16:40,0.9,0.6,0.9,0.9,0.8,0.4,0.3,-,-,��
2013/09/03,16:50,0.9,0.6,0.9,0.9,0.8,0.4,0.3,-,-,�L
2013/09/03,17:00,0.9,0.6,0.9,0.9,0.8,0.4,0.3,��,6.2,�L
2013/09/03,17:10,0.9,0.6,0.9,0.9,0.8,0.4,0.3,��,7.0,�L
2013/09/03,17:20,0.9,0.6,0.9,0.9,0.8,0.4,0.3,��,6.8,��
2013/09/03,17:30,0.9,0.6,0.9,0.9,0.8,0.4,0.3,��,7.2,��
2013/09/03,17:40,0.9,0.6,0.9,0.9,0.8,0.4,0.3,��,7.3,��
2013/09/03,17:50,0.9,0.6,0.9,0.9,0.8,0.4,0.3,��,7.7,��
2013/09/03,18:00,0.9,0.6,0.9,0.9,0.8,0.4,0.3,��,7.3,��
2013/09/03,18:10,0.9,0.6,0.9,0.9,0.8,0.4,0.3,��,7.9,��
2013/09/03,18:20,0.9,0.6,0.9,0.9,0.8,0.4,0.3,��,7.8,��
2013/09/03,18:30,0.9,0.6,0.9,0.9,0.8,0.4,0.3,��,7.9,��
2013/09/03,18:40,0.9,0.6,0.9,0.9,0.8,0.4,0.3,��,7.5,��
2013/09/03,18:50,0.9,0.6,0.9,0.9,0.8,0.4,0.3,��,6.7,��
2013/09/03,19:00,0.9,0.6,0.9,0.9,0.8,0.4,0.3,��,7.2,��
2013/09/03,19:10,0.9,0.6,0.9,0.9,0.8,0.4,0.3,��,6.8,��
2013/09/03,19:20,0.9,0.6,0.9,0.9,0.8,0.4,0.3,��,7.3,��
2013/09/03,19:30,0.9,0.6,0.9,0.9,0.8,0.4,0.3,��,6.8,��
2013/09/03,19:40,0.9,0.6,0.9,0.9,0.8,0.4,0.3,��쐼,6.8,��
2013/09/03,19:50,0.9,0.6,0.9,0.9,0.8,0.4,0.3,��쐼,7.3,��
2013/09/03,20:00,0.9,0.6,0.9,0.9,0.8,0.4,0.3,��쐼,7.6,��
2013/09/03,20:10,0.9,0.6,0.9,0.9,0.8,0.4,0.3,��,6.5,��
2013/09/03,20:20,0.9,0.6,0.9,0.9,0.8,0.4,0.3,��,6.9,��
2013/09/03,20:30,0.9,0.6,0.9,0.9,0.8,0.4,0.3,��,6.6,��
2013/09/03,20:40,0.9,0.6,0.9,0.9,0.8,0.4,0.3,��,7.0,��
2013/09/03,20:50,0.9,0.6,0.9,0.9,0.8,0.4,0.3,��,7.3,��
2013/09/03,21:00,0.9,0.6,0.9,0.9,0.8,0.4,0.3,��,7.5,��
2013/09/03,21:10,0.9,0.6,0.9,0.9,0.8,0.4,0.3,��,6.7,��
2013/09/03,21:20,0.9,0.6,0.9,0.9,0.8,0.4,0.3,��,6.6,��
2013/09/03,21:30,0.9,0.6,0.9,0.9,0.8,0.4,0.3,��,5.8,��
2013/09/03,21:40,0.9,0.6,0.9,0.9,0.8,0.4,0.3,��,5.6,�L
2013/09/03,21:50,0.9,0.6,0.9,0.9,0.8,0.4,0.3,��,6.3,��
2013/09/03,22:00,0.9,0.6,0.9,0.9,0.8,0.4,0.3,��,8.1,�L
2013/09/03,22:10,0.9,0.6,0.9,0.9,0.8,0.4,0.3,��,7.7,��
2013/09/03,22:20,0.9,0.6,0.9,0.9,0.8,0.4,0.3,��,7.1,��
2013/09/03,22:30,0.9,0.6,0.9,0.9,0.8,0.4,0.3,��쐼,6.9,��
2013/09/03,22:40,0.9,0.6,0.9,0.9,0.8,0.4,0.3,��쐼,7.5,�L
2013/09/03,22:50,0.9,0.6,0.9,0.9,0.8,0.4,0.3,��쐼,7.9,��
2013/09/03,23:00,0.9,0.6,0.9,0.9,0.8,0.4,0.3,��쐼,8.0,��
2013/09/03,23:10,0.9,0.6,0.9,0.9,0.8,0.4,0.3,��쐼,8.0,��
2013/09/03,23:20,0.9,0.6,0.9,0.9,0.8,0.4,0.3,��쐼,7.3,��
2013/09/03,23:30,0.9,0.6,0.9,0.9,0.8,0.4,0.3,��쐼,7.1,��
2013/09/03,23:40,0.9,0.6,0.9,0.9,0.8,0.4,0.3,��쐼,6.6,��
2013/09/03,23:50,0.9,0.6,0.9,0.9,0.8,0.4,0.3,��쐼,6.2,��
